Home   Weather   Kuujjuaq   Past weeks

Flag for Canada Past Weather in Kuujjuaq, Quebec, Canada — Yesterday and Last 2 Weeks

Now
1 °F

Light snow. Mostly cloudy.


Feels Like: -11 °F
Forecast: -2 / 6 °F
Wind: 7 mph from West

Location: Kuujjuaq

Current Time: Dec 11, 2016 at 3:02:07 am

Latest Report: Dec 11, 2016 at 2:00 am


Visibility: 15 mi

Pressure: 29.93 "Hg

Humidity: 78%

Dew Point: -4 °F

Location of KuujjuaqLocation

Past Weather in Kuujjuaq — Graph

°F

Kuujjuaq Temperature Yesterday

Maximum temperature yesterday: 10 °F (at 4:00 am)
Minimum temperature yesterday: -6 °F (at 7:00 pm)
Average temperature yesterday: 4 °F

High & Low Weather Summary for the Past Weeks

 TemperatureHumidityPressure
High21 °F (Nov 26, 4:00 am)93% (Dec 4, 6:00 am)30.50 "Hg (Dec 4, 6:00 am)
Low-15 °F (Dec 1, 8:00 am)66% (Dec 10, 12:00 am)29.67 "Hg (Dec 8, 11:00 pm)
Average6 °F83%30.08 "Hg
* Reported Nov 26 1:00 am — Dec 11 1:00 am, Kuujjuaq, Weather by CustomWeather, © 2016

Note: Actual official high and low records may vary slightly from our data, if they occured in-between our weather recording intervals... More about our weather records

Advertising

Kuujjuaq Weather History for the Previous 24 Hours

Scroll right to see more
 ConditionsComfort  
Time TempWeatherWind HumidityBarometerVisibility
1:00 am
Sun, Dec 11
3 °FLight snow. Passing clouds.2 mph72%29.93 "Hg15 mi
12:00 am1 °FPassing clouds.5 mph78%29.94 "Hg15 mi
11:00 pm
Sat, Dec 10
-2 °FPartly cloudy.8 mph84%29.94 "Hg15 mi
10:00 pm-4 °FPassing clouds.5 mph84%29.95 "Hg15 mi
9:00 pm-4 °FPassing clouds.3 mph77%29.96 "Hg15 mi
8:00 pm-6 °FPassing clouds.2 mph77%29.97 "Hg15 mi
7:00 pm-6 °FPassing clouds.7 mph84%29.98 "Hg15 mi
6:00 pm-4 °FPassing clouds.5 mph84%29.98 "Hg15 mi
5:00 pm1 °FPassing clouds.10 mph71%29.98 "Hg15 mi
4:00 pm3 °FPassing clouds.15 mph78%29.97 "Hg15 mi
3:00 pm1 °FPassing clouds.8 mph78%29.97 "Hg15 mi
2:00 pm1 °FPassing clouds.9 mph78%29.96 "Hg15 mi
1:00 pm5 °FPassing clouds.10 mph66%29.94 "Hg15 mi
12:00 pm7 °FPassing clouds.13 mph66%29.93 "Hg15 mi
11:00 am5 °FScattered clouds.15 mph72%29.92 "Hg15 mi
10:00 am5 °FLow level haze.17 mph72%29.92 "Hg15 mi
9:00 am5 °FScattered clouds.17 mph72%29.93 "Hg15 mi
8:00 am7 °FPassing clouds.20 mph72%29.92 "Hg15 mi
7:50 am7 °FPassing clouds.18 mph72%29.92 "Hg15 mi
7:00 am9 °FLight snow. Passing clouds.16 mph72%29.92 "Hg12 mi
6:00 am9 °FLight snow. Overcast.16 mph72%29.91 "Hg12 mi
5:00 am9 °FLight snow. Overcast.15 mph78%29.90 "Hg12 mi
4:00 am10 °FLight snow. Overcast.17 mph67%29.89 "Hg15 mi
3:00 am9 °FLight snow. Overcast.13 mph72%29.88 "Hg15 mi
Weather by CustomWeather, © 2016

See weather overviewHow to use our weather pages